User: anonymous   Login
Location: Unspecified
(0.0000°N, 0.0000°E)
Time: 16:39:26
(UTC+00:00)
Language:

Envisat - Orbit

View from above orbital plane
View from above orbital plane
View from above satellite
View from above satellite

Ground track
Ground track

The orbit data is extracted from the following two-line orbital elements,

1 27386U 02009A   20017.54601294 -.00000005  00000-0  11830-4 0  9991
2 27386  98.1401  32.5593 0001197  87.7066  83.6322 14.37968738936783
Epoch (UTC): 17 January 2020 13:06:15
Eccentricity: 0.0001197
inclination: 98.1401°
perigee height: 764 km
apogee height: 766 km
right ascension of ascending node: 32.5593°
argument of perigee: 87.7066°
revolutions per day: 14.37968738
mean anomaly at epoch: 83.6322°
orbit number at epoch: 93678

The dashed part of the orbit path shows where the satellite is in the earth's shadow,  

DLR